Wind_Speed
12 13 13 13 13 14 15 15 15 17 17 17 16 17 18 18 19 20 20 21 21 21 20 20 21 22 22 23 23 24 24 24 24 24 26 27 28 28 29 29 29 29 29
13 13 14 15 15 15 16 16 16 17 16 16 16 17 17 18 19 20 21 20 20 20 20 21 22 23 23 24 23 24 24 24 25 25 26 27 27 28 29 29 29 30 30
14 15 16 16 17 17 17 17 17 17 17 17 17 17 18 18 19 20 20 20 20 21 21 22 22 23 23 24 24 25 25 25 26 27 27 28 28 29 29 29 30 30 31
15 16 17 18 18 18 18 18 18 18 18 18 18 18 19 19 19 20 21 21 21 21 21 22 22 22 23 23 24 24 24 25 26 26 26 27 28 28 28 28 28 28 29
17 17 18 19 18 19 19 19 19 19 18 18 19 19 19 20 21 21 21 21 21 22 22 22 23 23 23 23 23 23 23 23 24 24 24 25 24 24 25 25 25 25 26
18 18 19 19 19 19 19 19 19 18 18 19 19 20 20 21 21 21 22 22 22 22 22 23 23 23 22 22 22 22 23 23 23 22 21 21 21 20 21 22 23 23 23
18 18 19 19 19 19 18 18 18 18 19 20 20 21 21 21 21 22 21 22 22 22 22 22 22 22 22 22 22 22 22 22 21 20 20 20 20 20 20 21 22 23 22
19 19 20 19 18 17 17 17 18 19 19 20 20 20 20 20 20 20 21 21 22 22 22 22 22 22 21 22 22 21 21 20 20 21 20 20 20 19 19 20 21 21 22
20 20 19 19 19 18 17 18 18 19 20 20 20 20 20 20 20 20 21 21 21 21 21 21 21 21 21 21 20 20 19 19 19 19 19 19 19 19 19 20 20 20 20
19 19 19 19 19 19 19 20 19 20 20 20 20 20 20 21 20 20 21 21 21 21 21 20 20 20 20 20 20 19 18 18 18 18 18 17 17 18 18 18 19 19 18
18 19 19 19 19 19 20 20 20 20 19 20 19 20 20 21 20 20 21 21 21 20 20 19 19 19 20 20 20 19 18 17 17 17 16 16 17 17 17 17 17 17 18
18 18 18 19 19 19 19 19 20 19 20 20 20 21 21 21 21 21 21 21 20 20 20 20 20 20 20 20 19 18 18 17 17 17 16 16 16 17 17 17 17 17 18
18 17 17 18 18 19 19 20 20 20 20 21 21 21 21 22 21 21 21 21 21 21 20 20 20 20 20 19 18 17 17 17 16 16 15 15 16 17 17 17 18 18 18
17 18 18 19 20 20 20 20 20 20 20 21 22 21 22 21 21 20 21 21 21 20 21 21 20 20 19 18 17 17 17 17 16 16 16 17 17 18 18 17 18 18 18
19 20 21 21 21 20 21 21 20 21 21 22 22 22 22 22 21 21 21 21 20 20 20 20 19 19 18 18 18 17 17 16 16 16 17 17 18 18 18 18 18 19 19
20 20 21 22 21 21 21 21 22 22 22 22 22 22 22 21 21 21 21 20 20 19 19 20 20 19 18 18 18 17 17 16 16 17 17 18 18 18 18 18 18 19 19
21 21 21 21 21 22 22 22 23 23 23 22 22 21 21 21 21 21 21 21 21 21 21 20 20 19 19 18 18 17 17 17 17 17 18 18 18 18 18 18 18 18 19
22 22 22 21 22 22 22 23 23 23 22 21 21 21 21 21 21 21 21 21 21 21 21 21 21 20 20 19 19 19 18 18 18 19 19 19 18 18 19 19 18 18 18
21 22 22 22 22 23 23 23 22 22 21 20 20 20 21 21 21 21 21 21 21 21 21 21 21 20 20 20 20 19 19 19 19 20 21 19 18 18 19 19 18 18 18
21 22 22 22 22 22 22 22 21 20 20 19 20 20 20 21 21 21 21 21 20 20 21 21 21 21 20 20 20 20 20 20 20 21 21 19 18 18 18 18 18 18 18
21 21 22 22 22 22 21 21 20 20 20 20 21 21 21 21 21 21 21 21 21 22 22 22 22 22 22 21 21 21 21 21 20 21 21 20 19 19 19 19 19 19 19
21 21 21 21 21 22 21 21 21 21 21 21 21 21 21 22 22 22 22 23 23 23 23 23 23 23 23 22 22 22 22 22 21 21 21 20 19 19 20 20 19 19 19
21 21 21 21 22 21 21 21 21 21 21 21 21 21 21 21 22 22 22 23 23 24 24 24 24 24 24 23 22 23 23 22 22 22 21 20 20 20 20 20 20 20 19
21 22 22 21 21 21 20 20 21 21 21 20 21 21 22 22 22 22 22 23 23 24 24 24 24 24 24 24 24 24 24 24 23 23 22 22 21 21 21 20 20 20 19
22 22 22 22 22 21 21 21 21 21 21 21 21 21 21 21 22 22 22 23 23 24 25 25 24 24 24 24 23 23 23 22 22 22 22 21 21 21 20 19 19 20 20
22 21 21 22 21 21 21 21 21 21 21 22 22 22 22 22 22 23 23 23 24 24 25 25 24 24 24 23 22 22 22 21 21 21 21 21 20 19 19 19 20 20 21
Wind_Direction
320 322 324 324 324 323 323 319 316 314 311 308 305 303 301 300 300 301 302 302 300 299 298 297 296 293 290 290 288 287 287 286 285 281 279 277 276 272 271 268 266 265 263
314 318 321 323 323 322 322 320 317 316 314 310 307 307 306 304 304 305 304 304 303 302 301 301 301 299 294 290 288 287 286 284 283 281 279 279 277 274 272 270 269 267 264
315 318 319 320 320 320 319 318 317 315 313 310 310 310 309 307 307 308 307 305 304 305 305 304 303 302 298 294 291 289 287 285 285 284 282 280 276 274 272 270 269 268 265
311 313 314 315 315 316 315 314 315 314 311 310 312 313 312 311 310 309 310 309 307 307 306 305 303 302 300 298 295 292 290 289 289 288 286 284 280 277 274 272 270 269 267
305 309 310 311 310 310 310 311 311 311 310 311 312 312 312 310 309 310 310 309 308 307 307 305 303 303 303 302 299 295 293 292 292 292 291 288 285 281 277 274 272 272 271
301 305 307 308 309 309 308 308 309 310 313 314 313 312 311 311 311 311 309 309 308 308 308 307 305 304 304 303 304 300 295 294 294 295 295 293 288 284 280 277 276 275 273
298 301 304 306 308 309 308 309 309 311 313 314 313 313 311 311 311 310 310 311 310 309 309 309 308 306 305 305 305 304 301 295 294 294 294 295 293 288 284 281 279 278 277
295 298 302 303 307 308 308 310 310 309 310 311 313 312 311 311 312 312 313 314 313 312 311 310 310 309 309 308 307 306 305 301 297 294 292 293 293 291 288 286 284 282 278
293 295 301 304 307 306 307 309 310 310 310 311 310 311 313 313 313 314 313 313 313 314 314 313 312 312 314 314 311 310 309 306 302 299 296 294 293 293 290 288 286 285 281
293 296 300 303 306 307 310 312 311 312 312 311 312 313 314 315 314 314 314 314 315 316 315 315 314 315 317 317 316 314 310 308 307 305 302 300 299 297 295 292 288 287 287
293 295 298 302 306 308 309 311 311 311 312 313 315 316 316 317 317 315 314 315 316 317 316 316 316 316 316 316 316 314 311 309 310 310 306 304 302 302 301 299 294 291 290
294 296 297 299 303 305 305 308 311 310 310 311 313 315 315 315 315 314 314 316 317 317 316 315 315 315 315 316 315 314 311 309 308 309 307 304 304 303 304 303 300 297 295
293 296 298 301 302 304 305 307 308 308 308 309 311 313 314 314 314 313 314 315 316 316 316 315 314 315 316 314 313 313 312 312 312 312 310 307 305 304 304 303 301 300 299
296 298 299 301 303 305 307 308 307 307 307 309 312 312 313 313 312 312 313 313 313 314 314 314 313 314 316 314 312 312 312 310 310 310 310 309 308 308 307 304 302 300 297
294 297 300 302 303 306 307 306 307 308 308 309 310 311 312 312 312 310 312 314 315 316 316 316 315 315 314 312 312 313 314 313 310 310 311 312 312 311 308 304 301 300 299
293 296 299 301 302 302 303 303 305 307 307 309 309 311 312 312 313 313 312 313 314 316 316 316 316 314 313 312 312 312 312 314 314 314 315 315 314 313 311 308 305 303 302
291 295 296 297 298 299 300 301 304 305 306 308 309 311 312 313 313 314 313 312 312 313 314 314 314 314 313 311 310 309 309 310 312 313 314 315 314 312 311 310 308 307 306
290 291 292 294 296 298 299 299 302 305 307 307 308 309 311 312 313 313 313 312 313 313 312 312 313 313 312 310 309 308 307 308 309 311 313 313 313 312 311 309 308 306 306
291 293 293 294 297 299 299 299 301 303 306 308 307 307 309 311 312 312 313 313 313 312 312 313 313 314 311 307 307 307 306 306 308 310 311 310 310 311 312 311 309 307 306
292 293 293 294 297 299 300 300 300 301 302 304 306 306 308 311 312 311 311 312 313 312 313 313 312 313 312 309 308 307 305 305 305 307 309 308 305 307 310 312 311 309 307
293 292 292 293 295 296 297 297 297 297 299 300 303 304 306 308 308 308 309 311 312 311 311 310 309 309 308 307 306 305 304 304 304 305 305 303 301 302 306 309 310 308 307
291 292 293 294 294 295 295 296 296 296 297 299 302 304 305 305 306 307 308 309 310 309 308 307 306 306 307 305 302 302 303 302 303 304 302 298 297 300 302 304 307 308 306
294 294 295 295 295 295 294 295 296 297 296 297 299 301 303 304 304 306 308 309 309 309 310 309 307 305 304 302 300 302 302 301 302 302 299 296 297 299 301 302 305 307 307
294 295 295 295 295 295 295 296 297 297 296 297 299 300 301 303 304 305 308 310 310 310 310 309 307 305 305 303 301 301 300 300 300 299 298 296 297 299 300 300 302 305 307
292 292 292 293 294 295 296 296 297 297 296 297 299 300 301 303 306 307 308 310 311 312 311 310 309 307 305 305 303 301 301 301 301 301 301 299 298 299 300 301 302 305 306
292 291 291 294 295 296 296 297 297 297 298 298 299 300 302 304 306 308 309 310 311 313 313 312 310 308 306 305 305 304 303 302 303 304 303 301 299 299 301 302 302 304 305
Height
5791 5788 5786 5784 5782 5779 5777 5775 5772 5770 5767 5765 5764 5762 5761 5759 5757 5755 5753 5750 5748 5746 5743 5741 5739 5737 5735 5733 5731 5729 5728 5726 5725 5725 5723 5722 5722 5721 5721 5721 5721 5722 5723
5788 5785 5783 5781 5779 5777 5774 5771 5769 5766 5763 5761 5760 5758 5757 5755 5753 5750 5748 5746 5743 5741 5738 5736 5733 5731 5728 5726 5724 5722 5720 5719 5718 5717 5716 5715 5714 5713 5713 5713 5713 5714 5714
5784 5782 5780 5778 5776 5773 5771 5768 5765 5762 5760 5758 5756 5754 5752 5750 5748 5746 5743 5741 5738 5736 5733 5730 5728 5725 5722 5719 5717 5715 5713 5712 5710 5708 5708 5707 5706 5705 5705 5705 5705 5705 5705
5781 5779 5777 5775 5772 5770 5767 5764 5762 5759 5756 5754 5752 5750 5748 5746 5743 5741 5738 5735 5733 5730 5727 5725 5722 5719 5716 5713 5710 5708 5706 5704 5703 5701 5699 5699 5698 5697 5696 5696 5696 5696 5696
5777 5775 5773 5771 5768 5766 5763 5760 5758 5755 5753 5751 5748 5746 5744 5741 5738 5736 5733 5730 5728 5725 5722 5719 5716 5713 5710 5707 5704 5702 5700 5698 5696 5694 5692 5691 5690 5689 5688 5688 5688 5688 5687
5773 5771 5769 5766 5764 5761 5759 5756 5753 5751 5749 5746 5744 5741 5739 5736 5733 5731 5728 5725 5722 5719 5716 5713 5710 5707 5704 5701 5699 5696 5693 5691 5690 5687 5686 5684 5683 5682 5681 5681 5680 5680 5680
5768 5766 5764 5762 5759 5757 5754 5752 5749 5747 5744 5742 5739 5736 5734 5731 5728 5725 5722 5719 5716 5713 5711 5707 5704 5701 5699 5696 5693 5690 5688 5685 5683 5682 5680 5678 5677 5676 5675 5674 5673 5673 5673
5764 5761 5759 5757 5755 5752 5750 5747 5745 5742 5740 5737 5734 5732 5729 5726 5723 5720 5717 5714 5711 5708 5705 5702 5699 5696 5693 5690 5687 5685 5682 5680 5678 5676 5674 5673 5671 5670 5668 5667 5666 5666 5665
5759 5757 5755 5753 5750 5748 5746 5743 5740 5738 5735 5732 5730 5727 5724 5721 5718 5715 5712 5709 5706 5703 5700 5697 5694 5691 5688 5685 5682 5679 5677 5675 5672 5670 5669 5667 5666 5664 5663 5662 5660 5659 5659
5754 5752 5750 5748 5746 5744 5741 5738 5736 5733 5730 5727 5725 5722 5719 5716 5713 5710 5707 5704 5702 5698 5695 5692 5689 5686 5683 5680 5677 5675 5673 5670 5668 5666 5664 5662 5661 5659 5658 5656 5655 5654 5653
5749 5747 5746 5744 5741 5739 5736 5734 5731 5728 5725 5723 5720 5717 5714 5711 5708 5705 5703 5700 5697 5694 5691 5688 5685 5682 5679 5676 5673 5670 5668 5666 5664 5662 5660 5658 5656 5654 5653 5651 5650 5648 5647
5744 5742 5741 5739 5737 5734 5732 5729 5726 5724 5721 5718 5716 5713 5710 5707 5704 5701 5698 5695 5692 5689 5686 5683 5680 5677 5674 5671 5669 5666 5664 5662 5660 5657 5655 5654 5652 5650 5648 5646 5645 5643 5642
5740 5738 5736 5734 5732 5730 5727 5725 5722 5719 5716 5714 5711 5708 5705 5702 5699 5696 5693 5690 5687 5684 5682 5679 5676 5673 5670 5667 5664 5662 5660 5658 5655 5653 5651 5649 5647 5646 5644 5642 5640 5638 5637
5735 5734 5732 5730 5727 5725 5722 5719 5717 5714 5712 5709 5706 5703 5700 5697 5694 5691 5688 5686 5683 5680 5677 5674 5671 5668 5665 5662 5660 5658 5656 5653 5651 5649 5647 5645 5643 5641 5639 5637 5635 5633 5631
5730 5729 5727 5725 5722 5720 5717 5715 5712 5709 5706 5704 5701 5698 5695 5692 5689 5686 5683 5680 5678 5675 5672 5669 5666 5663 5661 5658 5656 5653 5651 5649 5647 5645 5643 5640 5638 5636 5634 5632 5630 5628 5626
5725 5723 5721 5719 5717 5715 5712 5710 5707 5704 5701 5698 5695 5693 5690 5688 5685 5682 5679 5676 5673 5670 5667 5664 5661 5659 5656 5654 5651 5649 5647 5645 5642 5640 5638 5636 5633 5631 5629 5626 5624 5622 5620
5719 5717 5716 5713 5711 5709 5706 5704 5702 5699 5696 5693 5690 5688 5685 5683 5680 5677 5674 5671 5668 5665 5662 5659 5657 5654 5651 5649 5647 5644 5642 5640 5638 5636 5633 5631 5628 5626 5623 5621 5619 5616 5614
5713 5711 5710 5708 5705 5703 5701 5698 5696 5694 5691 5688 5686 5683 5680 5678 5675 5672 5669 5666 5663 5660 5657 5654 5652 5649 5646 5644 5642 5639 5637 5635 5633 5631 5628 5626 5623 5621 5618 5616 5613 5611 5608
5706 5705 5703 5701 5699 5697 5695 5692 5690 5688 5686 5683 5681 5678 5675 5673 5670 5667 5664 5661 5658 5655 5652 5649 5647 5644 5641 5639 5637 5634 5632 5630 5628 5625 5623 5620 5618 5616 5613 5610 5608 5605 5603
5700 5698 5696 5695 5693 5691 5688 5686 5684 5682 5680 5678 5676 5673 5671 5668 5665 5662 5659 5656 5653 5650 5647 5644 5641 5639 5636 5634 5631 5628 5626 5624 5622 5620 5617 5615 5613 5610 5608 5605 5603 5600 5598
5693 5692 5690 5688 5686 5684 5682 5680 5678 5676 5674 5672 5670 5668 5665 5663 5660 5657 5655 5652 5648 5645 5642 5639 5636 5633 5631 5628 5625 5623 5620 5618 5616 5614 5612 5609 5607 5605 5603 5601 5598 5595 5592
5687 5685 5684 5682 5680 5678 5676 5674 5672 5670 5668 5666 5664 5662 5660 5657 5655 5652 5649 5646 5643 5639 5636 5633 5630 5627 5625 5622 5619 5617 5615 5612 5610 5608 5606 5603 5602 5600 5597 5595 5593 5590 5587
5680 5679 5677 5675 5673 5672 5670 5668 5666 5664 5662 5660 5658 5656 5654 5651 5649 5646 5643 5640 5637 5634 5630 5627 5624 5621 5618 5615 5613 5610 5608 5606 5603 5601 5599 5597 5595 5593 5591 5589 5587 5584 5581
5674 5672 5670 5669 5667 5665 5663 5662 5660 5658 5656 5654 5652 5650 5648 5645 5643 5640 5637 5634 5631 5628 5624 5621 5617 5614 5611 5608 5605 5603 5600 5598 5595 5593 5591 5590 5588 5587 5585 5583 5581 5578 5576
5667 5666 5664 5662 5660 5659 5657 5656 5654 5652 5650 5648 5646 5644 5641 5639 5637 5634 5631 5628 5625 5622 5618 5614 5611 5607 5604 5601 5598 5595 5593 5590 5588 5586 5584 5583 5582 5580 5579 5577 5575 5572 5570
5661 5659 5658 5656 5654 5653 5651 5649 5648 5646 5644 5642 5640 5638 5635 5633 5631 5628 5625 5622 5619 5616 5612 5608 5604 5600 5597 5594 5591 5589 5586 5584 5582 5580 5578 5576 5575 5574 5572 5571 5569 5567 5564